Hourly Data Report for December 25, 2016

TORONTO CITY
ONTARIO

43°40'00.000" N
79°24'00.000" W
112.50 m
6158355
71508
XTO

Download Data

Hourly Data (December 2016)
Hourly Data Report for December 25, 2016
TIME
LST
Temp Definition
°C
Dew Point Definition
°C
Rel Hum Definition
%
Precip. Amount Definition
mm

Wind Dir Definition
10's deg

Wind Spd Definition
km/h
Visibility Definition
km
Stn Press Definition
kPa
Hmdx Definition


Wind Chill Definition


Weather Definition


00:00 3.4 0.0 78 0.0 LegendMM LegendMM   101.38     LegendNANA
01:00 3.2 0.2 81 0.0 LegendMM LegendMM   101.42     LegendNANA
02:00 3.2 0.0 79 0.0 LegendMM LegendMM   101.48     LegendNANA
03:00 3.2 0.1 80 0.0 LegendMM LegendMM   101.56     LegendNANA
04:00 3.3 -0.2 78 0.0 LegendMM LegendMM   101.61     LegendNANA
05:00 3.6 -1.5 69 0.0 LegendMM LegendMM   101.67     LegendNANA
06:00 3.2 -2.5 66 0.0 LegendMM LegendMM   101.78     LegendNANA
07:00 3.2 -2.5 66 0.0 LegendMM LegendMM   101.89     LegendNANA
08:00 3.1 -2.5 66 0.0 LegendMM LegendMM   102.01     LegendNANA
09:00 2.4 -2.7 69 0.0 LegendMM LegendMM   102.13     LegendNANA
10:00 1.9 -4.3 63 0.0 LegendMM LegendMM   102.22     LegendNANA
11:00 1.3 -3.5 70 0.0 LegendMM LegendMM   102.26     LegendNANA
12:00 1.8 -3.9 66 0.0 LegendMM LegendMM   102.22     LegendNANA
13:00 1.3 -4.1 67 0.0 LegendMM LegendMM   102.18     LegendNANA
14:00 0.4 -5.7 63 0.0 LegendMM LegendMM   102.23     LegendNANA
15:00 -0.3 -6.9 61 0.0 LegendMM LegendMM   102.26     LegendNANA
16:00 -0.1 -6.4 63 0.0 LegendMM LegendMM   102.29     LegendNANA
17:00 -0.6 -6.3 65 0.0 LegendMM LegendMM   102.31     LegendNANA
18:00 -0.8 -6.3 66 0.0 LegendMM LegendMM   102.38     LegendNANA
19:00 -1.0 -6.5 66 0.0 LegendMM LegendMM   102.35     LegendNANA
20:00 -1.0 -6.4 67 0.0 LegendMM LegendMM   102.34     LegendNANA
21:00 -1.4 -6.7 67 0.0 LegendMM LegendMM   102.36     LegendNANA
22:00 -1.7 -6.5 70 0.0 LegendMM LegendMM   102.31     LegendNANA
23:00 -2.1 -6.1 74 0.0 LegendMM LegendMM   102.23     LegendNANA

Notes on Data Quality.

Legend

  • E = Estimated
  • M = Missing
  • NA = Not Available*
  • [empty] = Indicates an unobserved value
Date modified: